Index of /20260423/WXO-DD/model_rdps/10km/12/013
Name Last modified Size Description
Parent Directory -
20260423T12Z_MSC_RDPS_AbsoluteVorticity_IsbL-0250_RLatLon0.09_PT013H.grib2 2026-04-23 14:44 621K
20260423T12Z_MSC_RDPS_AbsoluteVorticity_IsbL-0500_RLatLon0.09_PT013H.grib2 2026-04-23 14:44 567K
20260423T12Z_MSC_RDPS_AbsoluteVorticity_IsbL-0700_RLatLon0.09_PT013H.grib2 2026-04-23 14:44 623K
20260423T12Z_MSC_RDPS_AbsoluteVorticity_IsbL-0850_RLatLon0.09_PT013H.grib2 2026-04-23 14:44 779K
20260423T12Z_MSC_RDPS_AirTemp_AGL-120m_RLatLon0.09_PT013H.grib2 2026-04-23 14:44 369K
20260423T12Z_MSC_RDPS_AirTemp_AGL-2m_RLatLon0.09_PT013H.grib2 2026-04-23 14:44 619K
20260423T12Z_MSC_RDPS_AirTemp_AGL-40m_RLatLon0.09_PT013H.grib2 2026-04-23 14:44 380K
20260423T12Z_MSC_RDPS_AirTemp_AGL-80m_RLatLon0.09_PT013H.grib2 2026-04-23 14:44 373K
20260423T12Z_MSC_RDPS_AirTemp_IsbL-0001_RLatLon0.09_PT013H.grib2 2026-04-23 14:44 300K
20260423T12Z_MSC_RDPS_AirTemp_IsbL-0005_RLatLon0.09_PT013H.grib2 2026-04-23 14:44 327K
20260423T12Z_MSC_RDPS_AirTemp_IsbL-0010_RLatLon0.09_PT013H.grib2 2026-04-23 14:44 299K
20260423T12Z_MSC_RDPS_AirTemp_IsbL-0020_RLatLon0.09_PT013H.grib2 2026-04-23 14:44 318K
20260423T12Z_MSC_RDPS_AirTemp_IsbL-0030_RLatLon0.09_PT013H.grib2 2026-04-23 14:44 336K
20260423T12Z_MSC_RDPS_AirTemp_IsbL-0050_RLatLon0.09_PT013H.grib2 2026-04-23 14:44 320K
20260423T12Z_MSC_RDPS_AirTemp_IsbL-0100_RLatLon0.09_PT013H.grib2 2026-04-23 14:44 428K
20260423T12Z_MSC_RDPS_AirTemp_IsbL-0150_RLatLon0.09_PT013H.grib2 2026-04-23 14:44 434K
20260423T12Z_MSC_RDPS_AirTemp_IsbL-0175_RLatLon0.09_PT013H.grib2 2026-04-23 14:44 432K
20260423T12Z_MSC_RDPS_AirTemp_IsbL-0200_RLatLon0.09_PT013H.grib2 2026-04-23 14:44 433K
20260423T12Z_MSC_RDPS_AirTemp_IsbL-0225_RLatLon0.09_PT013H.grib2 2026-04-23 14:44 430K
20260423T12Z_MSC_RDPS_AirTemp_IsbL-0250_RLatLon0.09_PT013H.grib2 2026-04-23 14:44 431K
20260423T12Z_MSC_RDPS_AirTemp_IsbL-0275_RLatLon0.09_PT013H.grib2 2026-04-23 14:44 411K
20260423T12Z_MSC_RDPS_AirTemp_IsbL-0300_RLatLon0.09_PT013H.grib2 2026-04-23 14:44 417K
20260423T12Z_MSC_RDPS_AirTemp_IsbL-0350_RLatLon0.09_PT013H.grib2 2026-04-23 14:44 430K
20260423T12Z_MSC_RDPS_AirTemp_IsbL-0400_RLatLon0.09_PT013H.grib2 2026-04-23 14:44 431K
20260423T12Z_MSC_RDPS_AirTemp_IsbL-0450_RLatLon0.09_PT013H.grib2 2026-04-23 14:44 440K
20260423T12Z_MSC_RDPS_AirTemp_IsbL-0500_RLatLon0.09_PT013H.grib2 2026-04-23 14:44 419K
20260423T12Z_MSC_RDPS_AirTemp_IsbL-0550_RLatLon0.09_PT013H.grib2 2026-04-23 14:44 439K
20260423T12Z_MSC_RDPS_AirTemp_IsbL-0600_RLatLon0.09_PT013H.grib2 2026-04-23 14:44 457K
20260423T12Z_MSC_RDPS_AirTemp_IsbL-0650_RLatLon0.09_PT013H.grib2 2026-04-23 14:44 469K
20260423T12Z_MSC_RDPS_AirTemp_IsbL-0700_RLatLon0.09_PT013H.grib2 2026-04-23 14:44 491K
20260423T12Z_MSC_RDPS_AirTemp_IsbL-0750_RLatLon0.09_PT013H.grib2 2026-04-23 14:44 413K
20260423T12Z_MSC_RDPS_AirTemp_IsbL-0800_RLatLon0.09_PT013H.grib2 2026-04-23 14:44 455K
20260423T12Z_MSC_RDPS_AirTemp_IsbL-0850_RLatLon0.09_PT013H.grib2 2026-04-23 14:44 491K
20260423T12Z_MSC_RDPS_AirTemp_IsbL-0875_RLatLon0.09_PT013H.grib2 2026-04-23 14:44 503K
20260423T12Z_MSC_RDPS_AirTemp_IsbL-0900_RLatLon0.09_PT013H.grib2 2026-04-23 14:44 511K
20260423T12Z_MSC_RDPS_AirTemp_IsbL-0925_RLatLon0.09_PT013H.grib2 2026-04-23 14:44 512K
20260423T12Z_MSC_RDPS_AirTemp_IsbL-0950_RLatLon0.09_PT013H.grib2 2026-04-23 14:44 512K
20260423T12Z_MSC_RDPS_AirTemp_IsbL-0970_RLatLon0.09_PT013H.grib2 2026-04-23 14:44 506K
20260423T12Z_MSC_RDPS_AirTemp_IsbL-0985_RLatLon0.09_PT013H.grib2 2026-04-23 14:44 499K
20260423T12Z_MSC_RDPS_AirTemp_IsbL-1000_RLatLon0.09_PT013H.grib2 2026-04-23 14:44 498K
20260423T12Z_MSC_RDPS_AirTemp_IsbL-1015_RLatLon0.09_PT013H.grib2 2026-04-23 14:44 480K
20260423T12Z_MSC_RDPS_Albedo_Sfc_RLatLon0.09_PT013H.grib2 2026-04-23 14:44 164K
20260423T12Z_MSC_RDPS_CAPE_Sfc_RLatLon0.09_PT013H.grib2 2026-04-23 14:44 1.7M
20260423T12Z_MSC_RDPS_CIN_Sfc_RLatLon0.09_PT013H.grib2 2026-04-23 14:44 1.2M
20260423T12Z_MSC_RDPS_CloudWater_EAtm_RLatLon0.09_PT013H.grib2 2026-04-23 14:44 215K
20260423T12Z_MSC_RDPS_ConvectivePrecip-Accum_Sfc_RLatLon0.09_PT013H.grib2 2026-04-23 14:44 715K
20260423T12Z_MSC_RDPS_DewPointDepression_AGL-2m_RLatLon0.09_PT013H.grib2 2026-04-23 14:44 403K
20260423T12Z_MSC_RDPS_DewPointDepression_IsbL-0001_RLatLon0.09_PT013H.grib2 2026-04-23 14:44 193
20260423T12Z_MSC_RDPS_DewPointDepression_IsbL-0005_RLatLon0.09_PT013H.grib2 2026-04-23 14:44 193
20260423T12Z_MSC_RDPS_DewPointDepression_IsbL-0010_RLatLon0.09_PT013H.grib2 2026-04-23 14:44 193
20260423T12Z_MSC_RDPS_DewPointDepression_IsbL-0020_RLatLon0.09_PT013H.grib2 2026-04-23 14:44 193
20260423T12Z_MSC_RDPS_DewPointDepression_IsbL-0030_RLatLon0.09_PT013H.grib2 2026-04-23 14:44 193
20260423T12Z_MSC_RDPS_DewPointDepression_IsbL-0050_RLatLon0.09_PT013H.grib2 2026-04-23 14:44 84K
20260423T12Z_MSC_RDPS_DewPointDepression_IsbL-0100_RLatLon0.09_PT013H.grib2 2026-04-23 14:44 126K
20260423T12Z_MSC_RDPS_DewPointDepression_IsbL-0150_RLatLon0.09_PT013H.grib2 2026-04-23 14:44 155K
20260423T12Z_MSC_RDPS_DewPointDepression_IsbL-0175_RLatLon0.09_PT013H.grib2 2026-04-23 14:44 197K
20260423T12Z_MSC_RDPS_DewPointDepression_IsbL-0200_RLatLon0.09_PT013H.grib2 2026-04-23 14:44 231K
20260423T12Z_MSC_RDPS_DewPointDepression_IsbL-0225_RLatLon0.09_PT013H.grib2 2026-04-23 14:44 269K
20260423T12Z_MSC_RDPS_DewPointDepression_IsbL-0250_RLatLon0.09_PT013H.grib2 2026-04-23 14:44 305K
20260423T12Z_MSC_RDPS_DewPointDepression_IsbL-0275_RLatLon0.09_PT013H.grib2 2026-04-23 14:44 314K
20260423T12Z_MSC_RDPS_DewPointDepression_IsbL-0300_RLatLon0.09_PT013H.grib2 2026-04-23 14:44 334K
20260423T12Z_MSC_RDPS_DewPointDepression_IsbL-0350_RLatLon0.09_PT013H.grib2 2026-04-23 14:44 339K
20260423T12Z_MSC_RDPS_DewPointDepression_IsbL-0400_RLatLon0.09_PT013H.grib2 2026-04-23 14:44 352K
20260423T12Z_MSC_RDPS_DewPointDepression_IsbL-0450_RLatLon0.09_PT013H.grib2 2026-04-23 14:44 363K
20260423T12Z_MSC_RDPS_DewPointDepression_IsbL-0500_RLatLon0.09_PT013H.grib2 2026-04-23 14:44 378K
20260423T12Z_MSC_RDPS_DewPointDepression_IsbL-0550_RLatLon0.09_PT013H.grib2 2026-04-23 14:44 389K
20260423T12Z_MSC_RDPS_DewPointDepression_IsbL-0600_RLatLon0.09_PT013H.grib2 2026-04-23 14:44 395K
20260423T12Z_MSC_RDPS_DewPointDepression_IsbL-0650_RLatLon0.09_PT013H.grib2 2026-04-23 14:44 391K
20260423T12Z_MSC_RDPS_DewPointDepression_IsbL-0700_RLatLon0.09_PT013H.grib2 2026-04-23 14:44 398K
20260423T12Z_MSC_RDPS_DewPointDepression_IsbL-0750_RLatLon0.09_PT013H.grib2 2026-04-23 14:44 414K
20260423T12Z_MSC_RDPS_DewPointDepression_IsbL-0800_RLatLon0.09_PT013H.grib2 2026-04-23 14:44 442K
20260423T12Z_MSC_RDPS_DewPointDepression_IsbL-0850_RLatLon0.09_PT013H.grib2 2026-04-23 14:44 461K
20260423T12Z_MSC_RDPS_DewPointDepression_IsbL-0875_RLatLon0.09_PT013H.grib2 2026-04-23 14:44 461K
20260423T12Z_MSC_RDPS_DewPointDepression_IsbL-0900_RLatLon0.09_PT013H.grib2 2026-04-23 14:44 456K
20260423T12Z_MSC_RDPS_DewPointDepression_IsbL-0925_RLatLon0.09_PT013H.grib2 2026-04-23 14:44 444K
20260423T12Z_MSC_RDPS_DewPointDepression_IsbL-0950_RLatLon0.09_PT013H.grib2 2026-04-23 14:44 432K
20260423T12Z_MSC_RDPS_DewPointDepression_IsbL-0970_RLatLon0.09_PT013H.grib2 2026-04-23 14:44 427K
20260423T12Z_MSC_RDPS_DewPointDepression_IsbL-0985_RLatLon0.09_PT013H.grib2 2026-04-23 14:44 422K
20260423T12Z_MSC_RDPS_DewPointDepression_IsbL-1000_RLatLon0.09_PT013H.grib2 2026-04-23 14:44 414K
20260423T12Z_MSC_RDPS_DewPointDepression_IsbL-1015_RLatLon0.09_PT013H.grib2 2026-04-23 14:44 403K
20260423T12Z_MSC_RDPS_DewPoint_AGL-2m_RLatLon0.09_PT013H.grib2 2026-04-23 14:44 387K
20260423T12Z_MSC_RDPS_DownwardLongwaveRadiationFlux-Accum_Sfc_RLatLon0.09_PT013H.grib2 2026-04-23 14:44 479K
20260423T12Z_MSC_RDPS_DownwardShortwaveRadiationFlux-Accum_NTAtm_RLatLon0.09_PT013H.grib2 2026-04-23 14:44 101K
20260423T12Z_MSC_RDPS_DownwardShortwaveRadiationFlux-Accum_Sfc_RLatLon0.09_PT013H.grib2 2026-04-23 14:44 594K
20260423T12Z_MSC_RDPS_FreezingRain-Accum1h_Sfc_RLatLon0.09_PT013H.grib2 2026-04-23 14:44 25K
20260423T12Z_MSC_RDPS_FreezingRain-Accum_Sfc_RLatLon0.09_PT013H.grib2 2026-04-23 14:44 53K
20260423T12Z_MSC_RDPS_GeopotentialHeight_IsbL-0001_RLatLon0.09_PT013H.grib2 2026-04-23 14:44 270K
20260423T12Z_MSC_RDPS_GeopotentialHeight_IsbL-0005_RLatLon0.09_PT013H.grib2 2026-04-23 14:44 307K
20260423T12Z_MSC_RDPS_GeopotentialHeight_IsbL-0010_RLatLon0.09_PT013H.grib2 2026-04-23 14:44 336K
20260423T12Z_MSC_RDPS_GeopotentialHeight_IsbL-0020_RLatLon0.09_PT013H.grib2 2026-04-23 14:44 396K
20260423T12Z_MSC_RDPS_GeopotentialHeight_IsbL-0030_RLatLon0.09_PT013H.grib2 2026-04-23 14:44 399K
20260423T12Z_MSC_RDPS_GeopotentialHeight_IsbL-0050_RLatLon0.09_PT013H.grib2 2026-04-23 14:44 307K
20260423T12Z_MSC_RDPS_GeopotentialHeight_IsbL-0100_RLatLon0.09_PT013H.grib2 2026-04-23 14:44 289K
20260423T12Z_MSC_RDPS_GeopotentialHeight_IsbL-0150_RLatLon0.09_PT013H.grib2 2026-04-23 14:44 231K
20260423T12Z_MSC_RDPS_GeopotentialHeight_IsbL-0175_RLatLon0.09_PT013H.grib2 2026-04-23 14:44 236K
20260423T12Z_MSC_RDPS_GeopotentialHeight_IsbL-0200_RLatLon0.09_PT013H.grib2 2026-04-23 14:44 240K
20260423T12Z_MSC_RDPS_GeopotentialHeight_IsbL-0225_RLatLon0.09_PT013H.grib2 2026-04-23 14:44 242K
20260423T12Z_MSC_RDPS_GeopotentialHeight_IsbL-0250_RLatLon0.09_PT013H.grib2 2026-04-23 14:44 243K
20260423T12Z_MSC_RDPS_GeopotentialHeight_IsbL-0275_RLatLon0.09_PT013H.grib2 2026-04-23 14:44 242K
20260423T12Z_MSC_RDPS_GeopotentialHeight_IsbL-0300_RLatLon0.09_PT013H.grib2 2026-04-23 14:44 241K
20260423T12Z_MSC_RDPS_GeopotentialHeight_IsbL-0350_RLatLon0.09_PT013H.grib2 2026-04-23 14:44 237K
20260423T12Z_MSC_RDPS_GeopotentialHeight_IsbL-0400_RLatLon0.09_PT013H.grib2 2026-04-23 14:44 307K
20260423T12Z_MSC_RDPS_GeopotentialHeight_IsbL-0450_RLatLon0.09_PT013H.grib2 2026-04-23 14:44 301K
20260423T12Z_MSC_RDPS_GeopotentialHeight_IsbL-0500_RLatLon0.09_PT013H.grib2 2026-04-23 14:44 297K
20260423T12Z_MSC_RDPS_GeopotentialHeight_IsbL-0550_RLatLon0.09_PT013H.grib2 2026-04-23 14:44 293K
20260423T12Z_MSC_RDPS_GeopotentialHeight_IsbL-0600_RLatLon0.09_PT013H.grib2 2026-04-23 14:44 289K
20260423T12Z_MSC_RDPS_GeopotentialHeight_IsbL-0650_RLatLon0.09_PT013H.grib2 2026-04-23 14:44 259K
20260423T12Z_MSC_RDPS_GeopotentialHeight_IsbL-0700_RLatLon0.09_PT013H.grib2 2026-04-23 14:44 257K
20260423T12Z_MSC_RDPS_GeopotentialHeight_IsbL-0750_RLatLon0.09_PT013H.grib2 2026-04-23 14:44 259K
20260423T12Z_MSC_RDPS_GeopotentialHeight_IsbL-0800_RLatLon0.09_PT013H.grib2 2026-04-23 14:44 348K
20260423T12Z_MSC_RDPS_GeopotentialHeight_IsbL-0850_RLatLon0.09_PT013H.grib2 2026-04-23 14:44 354K
20260423T12Z_MSC_RDPS_GeopotentialHeight_IsbL-0875_RLatLon0.09_PT013H.grib2 2026-04-23 14:44 358K
20260423T12Z_MSC_RDPS_GeopotentialHeight_IsbL-0900_RLatLon0.09_PT013H.grib2 2026-04-23 14:44 362K
20260423T12Z_MSC_RDPS_GeopotentialHeight_IsbL-0925_RLatLon0.09_PT013H.grib2 2026-04-23 14:44 362K
20260423T12Z_MSC_RDPS_GeopotentialHeight_IsbL-0950_RLatLon0.09_PT013H.grib2 2026-04-23 14:44 365K
20260423T12Z_MSC_RDPS_GeopotentialHeight_IsbL-0970_RLatLon0.09_PT013H.grib2 2026-04-23 14:44 371K
20260423T12Z_MSC_RDPS_GeopotentialHeight_IsbL-0985_RLatLon0.09_PT013H.grib2 2026-04-23 14:44 379K
20260423T12Z_MSC_RDPS_GeopotentialHeight_IsbL-1000_RLatLon0.09_PT013H.grib2 2026-04-23 14:44 390K
20260423T12Z_MSC_RDPS_GeopotentialHeight_IsbL-1015_RLatLon0.09_PT013H.grib2 2026-04-23 14:44 310K
20260423T12Z_MSC_RDPS_Humidex_Sfc_RLatLon0.09_PT013H.grib2 2026-04-23 14:44 2.4M
20260423T12Z_MSC_RDPS_IcePellets-Accum1h_Sfc_RLatLon0.09_PT013H.grib2 2026-04-23 14:44 12K
20260423T12Z_MSC_RDPS_IcePellets-Accum_Sfc_RLatLon0.09_PT013H.grib2 2026-04-23 14:44 27K
20260423T12Z_MSC_RDPS_KIndex_Sfc_RLatLon0.09_PT013H.grib2 2026-04-23 14:44 2.3M
20260423T12Z_MSC_RDPS_LatentHeatNetFlux_Sfc_RLatLon0.09_PT013H.grib2 2026-04-23 14:44 431K
20260423T12Z_MSC_RDPS_LiftedIndex-MU-VT_IsbL-0500_RLatLon0.09_PT013H.grib2 2026-04-23 14:44 2.4M
20260423T12Z_MSC_RDPS_NetLongwaveRadiationFlux-Accum_Sfc_RLatLon0.09_PT013H.grib2 2026-04-23 14:44 503K
20260423T12Z_MSC_RDPS_NetShortwaveRadiationFlux-Accum_Sfc_RLatLon0.09_PT013H.grib2 2026-04-23 14:44 598K
20260423T12Z_MSC_RDPS_PlanetaryBoundaryLayerHeight_Sfc_RLatLon0.09_PT013H.grib2 2026-04-23 14:44 1.0M
20260423T12Z_MSC_RDPS_Precip-Accum1h_Sfc_RLatLon0.09_PT013H.grib2 2026-04-23 14:44 1.2M
20260423T12Z_MSC_RDPS_Precip-Accum_Sfc_RLatLon0.09_PT013H.grib2 2026-04-23 14:44 1.7M
20260423T12Z_MSC_RDPS_PrecipRate_Sfc_RLatLon0.09_PT013H.grib2 2026-04-23 14:44 175K
20260423T12Z_MSC_RDPS_PrecipType-Instant_Sfc_RLatLon0.09_PT013H.grib2 2026-04-23 14:44 541K
20260423T12Z_MSC_RDPS_Pressure-Trend3h_Sfc_RLatLon0.09_PT013H.grib2 2026-04-23 14:44 1.2M
20260423T12Z_MSC_RDPS_Pressure_MSL_RLatLon0.09_PT013H.grib2 2026-04-23 14:44 327K
20260423T12Z_MSC_RDPS_Pressure_PVU-1.5_RLatLon0.09_PT013H.grib2 2026-04-23 14:44 2.5M
20260423T12Z_MSC_RDPS_Pressure_PVU-1_RLatLon0.09_PT013H.grib2 2026-04-23 14:44 2.4M
20260423T12Z_MSC_RDPS_Pressure_PVU-2_RLatLon0.09_PT013H.grib2 2026-04-23 14:44 2.4M
20260423T12Z_MSC_RDPS_Pressure_Sfc_RLatLon0.09_PT013H.grib2 2026-04-23 14:44 500K
20260423T12Z_MSC_RDPS_RadiativeTemp_Sfc_RLatLon0.09_PT013H.grib2 2026-04-23 14:44 308K
20260423T12Z_MSC_RDPS_Rain-Accum1h_Sfc_RLatLon0.09_PT013H.grib2 2026-04-23 14:44 568K
20260423T12Z_MSC_RDPS_Rain-Accum_Sfc_RLatLon0.09_PT013H.grib2 2026-04-23 14:44 1.2M
20260423T12Z_MSC_RDPS_RelativeHumidity_AGL-2m_RLatLon0.09_PT013H.grib2 2026-04-23 14:44 1.0M
20260423T12Z_MSC_RDPS_RelativeHumidity_IsbL-0010_RLatLon0.09_PT013H.grib2 2026-04-23 14:44 626K
20260423T12Z_MSC_RDPS_RelativeHumidity_IsbL-0020_RLatLon0.09_PT013H.grib2 2026-04-23 14:44 653K
20260423T12Z_MSC_RDPS_RelativeHumidity_IsbL-0030_RLatLon0.09_PT013H.grib2 2026-04-23 14:44 542K
20260423T12Z_MSC_RDPS_RelativeHumidity_IsbL-0050_RLatLon0.09_PT013H.grib2 2026-04-23 14:44 375K
20260423T12Z_MSC_RDPS_RelativeHumidity_IsbL-0100_RLatLon0.09_PT013H.grib2 2026-04-23 14:44 259K
20260423T12Z_MSC_RDPS_RelativeHumidity_IsbL-0150_RLatLon0.09_PT013H.grib2 2026-04-23 14:44 399K
20260423T12Z_MSC_RDPS_RelativeHumidity_IsbL-0175_RLatLon0.09_PT013H.grib2 2026-04-23 14:44 496K
20260423T12Z_MSC_RDPS_RelativeHumidity_IsbL-0200_RLatLon0.09_PT013H.grib2 2026-04-23 14:44 580K
20260423T12Z_MSC_RDPS_RelativeHumidity_IsbL-0225_RLatLon0.09_PT013H.grib2 2026-04-23 14:44 645K
20260423T12Z_MSC_RDPS_RelativeHumidity_IsbL-0250_RLatLon0.09_PT013H.grib2 2026-04-23 14:44 707K
20260423T12Z_MSC_RDPS_RelativeHumidity_IsbL-0275_RLatLon0.09_PT013H.grib2 2026-04-23 14:44 731K
20260423T12Z_MSC_RDPS_RelativeHumidity_IsbL-0300_RLatLon0.09_PT013H.grib2 2026-04-23 14:44 770K
20260423T12Z_MSC_RDPS_RelativeHumidity_IsbL-0350_RLatLon0.09_PT013H.grib2 2026-04-23 14:44 786K
20260423T12Z_MSC_RDPS_RelativeHumidity_IsbL-0400_RLatLon0.09_PT013H.grib2 2026-04-23 14:44 797K
20260423T12Z_MSC_RDPS_RelativeHumidity_IsbL-0450_RLatLon0.09_PT013H.grib2 2026-04-23 14:44 807K
20260423T12Z_MSC_RDPS_RelativeHumidity_IsbL-0500_RLatLon0.09_PT013H.grib2 2026-04-23 14:44 824K
20260423T12Z_MSC_RDPS_RelativeHumidity_IsbL-0550_RLatLon0.09_PT013H.grib2 2026-04-23 14:44 857K
20260423T12Z_MSC_RDPS_RelativeHumidity_IsbL-0600_RLatLon0.09_PT013H.grib2 2026-04-23 14:44 872K
20260423T12Z_MSC_RDPS_RelativeHumidity_IsbL-0650_RLatLon0.09_PT013H.grib2 2026-04-23 14:44 866K
20260423T12Z_MSC_RDPS_RelativeHumidity_IsbL-0700_RLatLon0.09_PT013H.grib2 2026-04-23 14:44 892K
20260423T12Z_MSC_RDPS_RelativeHumidity_IsbL-0750_RLatLon0.09_PT013H.grib2 2026-04-23 14:44 928K
20260423T12Z_MSC_RDPS_RelativeHumidity_IsbL-0800_RLatLon0.09_PT013H.grib2 2026-04-23 14:44 1.0M
20260423T12Z_MSC_RDPS_RelativeHumidity_IsbL-0850_RLatLon0.09_PT013H.grib2 2026-04-23 14:44 1.0M
20260423T12Z_MSC_RDPS_RelativeHumidity_IsbL-0875_RLatLon0.09_PT013H.grib2 2026-04-23 14:44 1.0M
20260423T12Z_MSC_RDPS_RelativeHumidity_IsbL-0900_RLatLon0.09_PT013H.grib2 2026-04-23 14:44 1.0M
20260423T12Z_MSC_RDPS_RelativeHumidity_IsbL-0925_RLatLon0.09_PT013H.grib2 2026-04-23 14:44 1.0M
20260423T12Z_MSC_RDPS_RelativeHumidity_IsbL-0950_RLatLon0.09_PT013H.grib2 2026-04-23 14:44 1.0M
20260423T12Z_MSC_RDPS_RelativeHumidity_IsbL-0970_RLatLon0.09_PT013H.grib2 2026-04-23 14:44 1.0M
20260423T12Z_MSC_RDPS_RelativeHumidity_IsbL-0985_RLatLon0.09_PT013H.grib2 2026-04-23 14:44 1.0M
20260423T12Z_MSC_RDPS_RelativeHumidity_IsbL-1000_RLatLon0.09_PT013H.grib2 2026-04-23 14:44 1.0M
20260423T12Z_MSC_RDPS_RelativeHumidity_IsbL-1015_RLatLon0.09_PT013H.grib2 2026-04-23 14:44 1.0M
20260423T12Z_MSC_RDPS_Runoff-Accum_Sfc_RLatLon0.09_PT013H.grib2 2026-04-23 14:44 39K
20260423T12Z_MSC_RDPS_SWEATIndex_Sfc_RLatLon0.09_PT013H.grib2 2026-04-23 14:44 2.4M
20260423T12Z_MSC_RDPS_SeeingIndex_EAtm_RLatLon0.09_PT013H.grib2 2026-04-23 14:44 1.0M
20260423T12Z_MSC_RDPS_SensibleHeatNetFlux_Sfc_RLatLon0.09_PT013H.grib2 2026-04-23 14:44 305K
20260423T12Z_MSC_RDPS_ShowalterIndex_IsbL-0500_RLatLon0.09_PT013H.grib2 2026-04-23 14:44 2.6M
20260423T12Z_MSC_RDPS_SkyTransparencyIndex_EAtm_RLatLon0.09_PT013H.grib2 2026-04-23 14:44 739K
20260423T12Z_MSC_RDPS_Snow-Accum1h_Sfc_RLatLon0.09_PT013H.grib2 2026-04-23 14:44 450K
20260423T12Z_MSC_RDPS_Snow-Accum_Sfc_RLatLon0.09_PT013H.grib2 2026-04-23 14:44 656K
20260423T12Z_MSC_RDPS_SnowDensity_Sfc_RLatLon0.09_PT013H.grib2 2026-04-23 14:44 174K
20260423T12Z_MSC_RDPS_SnowDepth_Sfc_RLatLon0.09_PT013H.grib2 2026-04-23 14:44 707K
20260423T12Z_MSC_RDPS_SoilTemp_DBS-0to10cm_RLatLon0.09_PT013H.grib2 2026-04-23 14:44 220K
20260423T12Z_MSC_RDPS_SoilTemp_Sfc_RLatLon0.09_PT013H.grib2 2026-04-23 14:44 271K
20260423T12Z_MSC_RDPS_SoilVolumetricIceContent_Sfc_RLatLon0.09_PT013H.grib2 2026-04-23 14:44 167K
20260423T12Z_MSC_RDPS_SoilVolumetricWaterContent_DBS-0to10cm_RLatLon0.09_PT013H.grib2 2026-04-23 14:44 251K
20260423T12Z_MSC_RDPS_SoilVolumetricWaterContent_DBS-0to1cm_RLatLon0.09_PT013H.grib2 2026-04-23 14:44 335K
20260423T12Z_MSC_RDPS_SpecificHumidity_AGL-120m_RLatLon0.09_PT013H.grib2 2026-04-23 14:44 468K
20260423T12Z_MSC_RDPS_SpecificHumidity_AGL-2m_RLatLon0.09_PT013H.grib2 2026-04-23 14:44 633K
20260423T12Z_MSC_RDPS_SpecificHumidity_AGL-40m_RLatLon0.09_PT013H.grib2 2026-04-23 14:44 474K
20260423T12Z_MSC_RDPS_SpecificHumidity_AGL-80m_RLatLon0.09_PT013H.grib2 2026-04-23 14:44 469K
20260423T12Z_MSC_RDPS_SpecificHumidity_IsbL-0001_RLatLon0.09_PT013H.grib2 2026-04-23 14:44 330K
20260423T12Z_MSC_RDPS_SpecificHumidity_IsbL-0005_RLatLon0.09_PT013H.grib2 2026-04-23 14:44 349K
20260423T12Z_MSC_RDPS_SpecificHumidity_IsbL-0010_RLatLon0.09_PT013H.grib2 2026-04-23 14:44 391K
20260423T12Z_MSC_RDPS_SpecificHumidity_IsbL-0020_RLatLon0.09_PT013H.grib2 2026-04-23 14:44 382K
20260423T12Z_MSC_RDPS_SpecificHumidity_IsbL-0030_RLatLon0.09_PT013H.grib2 2026-04-23 14:44 479K
20260423T12Z_MSC_RDPS_SpecificHumidity_IsbL-0050_RLatLon0.09_PT013H.grib2 2026-04-23 14:44 473K
20260423T12Z_MSC_RDPS_SpecificHumidity_IsbL-0100_RLatLon0.09_PT013H.grib2 2026-04-23 14:44 510K
20260423T12Z_MSC_RDPS_SpecificHumidity_IsbL-0150_RLatLon0.09_PT013H.grib2 2026-04-23 14:44 441K
20260423T12Z_MSC_RDPS_SpecificHumidity_IsbL-0175_RLatLon0.09_PT013H.grib2 2026-04-23 14:44 450K
20260423T12Z_MSC_RDPS_SpecificHumidity_IsbL-0200_RLatLon0.09_PT013H.grib2 2026-04-23 14:44 570K
20260423T12Z_MSC_RDPS_SpecificHumidity_IsbL-0225_RLatLon0.09_PT013H.grib2 2026-04-23 14:44 574K
20260423T12Z_MSC_RDPS_SpecificHumidity_IsbL-0250_RLatLon0.09_PT013H.grib2 2026-04-23 14:44 572K
20260423T12Z_MSC_RDPS_SpecificHumidity_IsbL-0275_RLatLon0.09_PT013H.grib2 2026-04-23 14:44 488K
20260423T12Z_MSC_RDPS_SpecificHumidity_IsbL-0300_RLatLon0.09_PT013H.grib2 2026-04-23 14:44 557K
20260423T12Z_MSC_RDPS_SpecificHumidity_IsbL-0350_RLatLon0.09_PT013H.grib2 2026-04-23 14:44 543K
20260423T12Z_MSC_RDPS_SpecificHumidity_IsbL-0400_RLatLon0.09_PT013H.grib2 2026-04-23 14:44 525K
20260423T12Z_MSC_RDPS_SpecificHumidity_IsbL-0450_RLatLon0.09_PT013H.grib2 2026-04-23 14:44 580K
20260423T12Z_MSC_RDPS_SpecificHumidity_IsbL-0500_RLatLon0.09_PT013H.grib2 2026-04-23 14:44 524K
20260423T12Z_MSC_RDPS_SpecificHumidity_IsbL-0550_RLatLon0.09_PT013H.grib2 2026-04-23 14:44 583K
20260423T12Z_MSC_RDPS_SpecificHumidity_IsbL-0600_RLatLon0.09_PT013H.grib2 2026-04-23 14:44 649K
20260423T12Z_MSC_RDPS_SpecificHumidity_IsbL-0650_RLatLon0.09_PT013H.grib2 2026-04-23 14:44 557K
20260423T12Z_MSC_RDPS_SpecificHumidity_IsbL-0700_RLatLon0.09_PT013H.grib2 2026-04-23 14:44 593K
20260423T12Z_MSC_RDPS_SpecificHumidity_IsbL-0750_RLatLon0.09_PT013H.grib2 2026-04-23 14:44 644K
20260423T12Z_MSC_RDPS_SpecificHumidity_IsbL-0800_RLatLon0.09_PT013H.grib2 2026-04-23 14:44 724K
20260423T12Z_MSC_RDPS_SpecificHumidity_IsbL-0850_RLatLon0.09_PT013H.grib2 2026-04-23 14:44 784K
20260423T12Z_MSC_RDPS_SpecificHumidity_IsbL-0875_RLatLon0.09_PT013H.grib2 2026-04-23 14:44 805K
20260423T12Z_MSC_RDPS_SpecificHumidity_IsbL-0900_RLatLon0.09_PT013H.grib2 2026-04-23 14:44 820K
20260423T12Z_MSC_RDPS_SpecificHumidity_IsbL-0925_RLatLon0.09_PT013H.grib2 2026-04-23 14:44 684K
20260423T12Z_MSC_RDPS_SpecificHumidity_IsbL-0950_RLatLon0.09_PT013H.grib2 2026-04-23 14:44 679K
20260423T12Z_MSC_RDPS_SpecificHumidity_IsbL-0970_RLatLon0.09_PT013H.grib2 2026-04-23 14:44 671K
20260423T12Z_MSC_RDPS_SpecificHumidity_IsbL-0985_RLatLon0.09_PT013H.grib2 2026-04-23 14:44 801K
20260423T12Z_MSC_RDPS_SpecificHumidity_IsbL-1000_RLatLon0.09_PT013H.grib2 2026-04-23 14:44 654K
20260423T12Z_MSC_RDPS_SpecificHumidity_IsbL-1015_RLatLon0.09_PT013H.grib2 2026-04-23 14:44 642K
20260423T12Z_MSC_RDPS_SpecificHumidity_Sfc_RLatLon0.09_PT013H.grib2 2026-04-23 14:44 318K
20260423T12Z_MSC_RDPS_StormRelativeHelicity_EtaL-10000_RLatLon0.09_PT013H.grib2 2026-04-23 14:44 1.1M
20260423T12Z_MSC_RDPS_StormSeverityIndex_EtaL-10000_RLatLon0.09_PT013H.grib2 2026-04-23 14:44 1.2M
20260423T12Z_MSC_RDPS_Thickness_IsbL-0850to0700_RLatLon0.09_PT013H.grib2 2026-04-23 14:44 176K
20260423T12Z_MSC_RDPS_Thickness_IsbL-1000to0500_RLatLon0.09_PT013H.grib2 2026-04-23 14:44 199K
20260423T12Z_MSC_RDPS_Thickness_IsbL-1000to0850_RLatLon0.09_PT013H.grib2 2026-04-23 14:44 184K
20260423T12Z_MSC_RDPS_TotalCloudCover_Sfc_RLatLon0.09_PT013H.grib2 2026-04-23 14:44 648K
20260423T12Z_MSC_RDPS_TotalTotalsIndex_Sfc_RLatLon0.09_PT013H.grib2 2026-04-23 14:44 2.3M
20260423T12Z_MSC_RDPS_UVIndex-ClearSky_Sfc_RLatLon0.09_PT013H.grib2 2026-04-23 14:44 136K
20260423T12Z_MSC_RDPS_UVIndex_Sfc_RLatLon0.09_PT013H.grib2 2026-04-23 14:44 298K
20260423T12Z_MSC_RDPS_UpwardLongwaveRadiationFlux_NTAtm_RLatLon0.09_PT013H.grib2 2026-04-23 14:44 493K
20260423T12Z_MSC_RDPS_UpwardShortwaveRadiationFlux_NTAtm_RLatLon0.09_PT013H.grib2 2026-04-23 14:44 278K
20260423T12Z_MSC_RDPS_VerticalVelocity_IsbL-0250_RLatLon0.09_PT013H.grib2 2026-04-23 14:44 471K
20260423T12Z_MSC_RDPS_VerticalVelocity_IsbL-0500_RLatLon0.09_PT013H.grib2 2026-04-23 14:44 589K
20260423T12Z_MSC_RDPS_VerticalVelocity_IsbL-0700_RLatLon0.09_PT013H.grib2 2026-04-23 14:44 609K
20260423T12Z_MSC_RDPS_VerticalVelocity_IsbL-0850_RLatLon0.09_PT013H.grib2 2026-04-23 14:44 700K
20260423T12Z_MSC_RDPS_VerticalWindShear_EtaL-6500_RLatLon0.09_PT013H.grib2 2026-04-23 14:44 1.2M
20260423T12Z_MSC_RDPS_WindChill_Sfc_RLatLon0.09_PT013H.grib2 2026-04-23 14:44 1.2M
20260423T12Z_MSC_RDPS_WindDir_AGL-10m_RLatLon0.09_PT013H.grib2 2026-04-23 14:44 940K
20260423T12Z_MSC_RDPS_WindDir_AGL-120m_RLatLon0.09_PT013H.grib2 2026-04-23 14:44 587K
20260423T12Z_MSC_RDPS_WindDir_AGL-40m_RLatLon0.09_PT013H.grib2 2026-04-23 14:44 611K
20260423T12Z_MSC_RDPS_WindDir_AGL-80m_RLatLon0.09_PT013H.grib2 2026-04-23 14:44 596K
20260423T12Z_MSC_RDPS_WindDir_IsbL-0001_RLatLon0.09_PT013H.grib2 2026-04-23 14:44 265K
20260423T12Z_MSC_RDPS_WindDir_IsbL-0005_RLatLon0.09_PT013H.grib2 2026-04-23 14:44 374K
20260423T12Z_MSC_RDPS_WindDir_IsbL-0010_RLatLon0.09_PT013H.grib2 2026-04-23 14:44 392K
20260423T12Z_MSC_RDPS_WindDir_IsbL-0020_RLatLon0.09_PT013H.grib2 2026-04-23 14:44 414K
20260423T12Z_MSC_RDPS_WindDir_IsbL-0030_RLatLon0.09_PT013H.grib2 2026-04-23 14:44 408K
20260423T12Z_MSC_RDPS_WindDir_IsbL-0050_RLatLon0.09_PT013H.grib2 2026-04-23 14:44 432K
20260423T12Z_MSC_RDPS_WindDir_IsbL-0100_RLatLon0.09_PT013H.grib2 2026-04-23 14:44 419K
20260423T12Z_MSC_RDPS_WindDir_IsbL-0150_RLatLon0.09_PT013H.grib2 2026-04-23 14:44 423K
20260423T12Z_MSC_RDPS_WindDir_IsbL-0175_RLatLon0.09_PT013H.grib2 2026-04-23 14:44 443K
20260423T12Z_MSC_RDPS_WindDir_IsbL-0200_RLatLon0.09_PT013H.grib2 2026-04-23 14:44 454K
20260423T12Z_MSC_RDPS_WindDir_IsbL-0225_RLatLon0.09_PT013H.grib2 2026-04-23 14:44 452K
20260423T12Z_MSC_RDPS_WindDir_IsbL-0250_RLatLon0.09_PT013H.grib2 2026-04-23 14:44 450K
20260423T12Z_MSC_RDPS_WindDir_IsbL-0275_RLatLon0.09_PT013H.grib2 2026-04-23 14:44 469K
20260423T12Z_MSC_RDPS_WindDir_IsbL-0300_RLatLon0.09_PT013H.grib2 2026-04-23 14:44 467K
20260423T12Z_MSC_RDPS_WindDir_IsbL-0350_RLatLon0.09_PT013H.grib2 2026-04-23 14:44 489K
20260423T12Z_MSC_RDPS_WindDir_IsbL-0400_RLatLon0.09_PT013H.grib2 2026-04-23 14:44 508K
20260423T12Z_MSC_RDPS_WindDir_IsbL-0450_RLatLon0.09_PT013H.grib2 2026-04-23 14:44 530K
20260423T12Z_MSC_RDPS_WindDir_IsbL-0500_RLatLon0.09_PT013H.grib2 2026-04-23 14:44 552K
20260423T12Z_MSC_RDPS_WindDir_IsbL-0550_RLatLon0.09_PT013H.grib2 2026-04-23 14:44 575K
20260423T12Z_MSC_RDPS_WindDir_IsbL-0600_RLatLon0.09_PT013H.grib2 2026-04-23 14:44 603K
20260423T12Z_MSC_RDPS_WindDir_IsbL-0650_RLatLon0.09_PT013H.grib2 2026-04-23 14:44 641K
20260423T12Z_MSC_RDPS_WindDir_IsbL-0700_RLatLon0.09_PT013H.grib2 2026-04-23 14:44 681K
20260423T12Z_MSC_RDPS_WindDir_IsbL-0750_RLatLon0.09_PT013H.grib2 2026-04-23 14:44 733K
20260423T12Z_MSC_RDPS_WindDir_IsbL-0800_RLatLon0.09_PT013H.grib2 2026-04-23 14:44 795K
20260423T12Z_MSC_RDPS_WindDir_IsbL-0850_RLatLon0.09_PT013H.grib2 2026-04-23 14:44 857K
20260423T12Z_MSC_RDPS_WindDir_IsbL-0875_RLatLon0.09_PT013H.grib2 2026-04-23 14:44 874K
20260423T12Z_MSC_RDPS_WindDir_IsbL-0900_RLatLon0.09_PT013H.grib2 2026-04-23 14:44 890K
20260423T12Z_MSC_RDPS_WindDir_IsbL-0925_RLatLon0.09_PT013H.grib2 2026-04-23 14:44 895K
20260423T12Z_MSC_RDPS_WindDir_IsbL-0950_RLatLon0.09_PT013H.grib2 2026-04-23 14:44 888K
20260423T12Z_MSC_RDPS_WindDir_IsbL-0970_RLatLon0.09_PT013H.grib2 2026-04-23 14:44 892K
20260423T12Z_MSC_RDPS_WindDir_IsbL-0985_RLatLon0.09_PT013H.grib2 2026-04-23 14:44 902K
20260423T12Z_MSC_RDPS_WindDir_IsbL-1000_RLatLon0.09_PT013H.grib2 2026-04-23 14:44 916K
20260423T12Z_MSC_RDPS_WindDir_IsbL-1015_RLatLon0.09_PT013H.grib2 2026-04-23 14:44 931K
20260423T12Z_MSC_RDPS_WindGust-Max_AGL-10m_RLatLon0.09_PT013H.grib2 2026-04-23 14:44 1.0M
20260423T12Z_MSC_RDPS_WindGust-Min_AGL-10m_RLatLon0.09_PT013H.grib2 2026-04-23 14:44 970K
20260423T12Z_MSC_RDPS_WindGust_AGL-10m_RLatLon0.09_PT013H.grib2 2026-04-23 14:44 1.0M
20260423T12Z_MSC_RDPS_WindSpeed_AGL-10m_RLatLon0.09_PT013H.grib2 2026-04-23 14:44 837K
20260423T12Z_MSC_RDPS_WindSpeed_AGL-120m_RLatLon0.09_PT013H.grib2 2026-04-23 14:44 534K
20260423T12Z_MSC_RDPS_WindSpeed_AGL-40m_RLatLon0.09_PT013H.grib2 2026-04-23 14:44 541K
20260423T12Z_MSC_RDPS_WindSpeed_AGL-80m_RLatLon0.09_PT013H.grib2 2026-04-23 14:44 536K
20260423T12Z_MSC_RDPS_WindSpeed_IsbL-0001_RLatLon0.09_PT013H.grib2 2026-04-23 14:44 245K
20260423T12Z_MSC_RDPS_WindSpeed_IsbL-0005_RLatLon0.09_PT013H.grib2 2026-04-23 14:44 293K
20260423T12Z_MSC_RDPS_WindSpeed_IsbL-0010_RLatLon0.09_PT013H.grib2 2026-04-23 14:44 308K
20260423T12Z_MSC_RDPS_WindSpeed_IsbL-0020_RLatLon0.09_PT013H.grib2 2026-04-23 14:44 423K
20260423T12Z_MSC_RDPS_WindSpeed_IsbL-0030_RLatLon0.09_PT013H.grib2 2026-04-23 14:44 325K
20260423T12Z_MSC_RDPS_WindSpeed_IsbL-0050_RLatLon0.09_PT013H.grib2 2026-04-23 14:44 467K
20260423T12Z_MSC_RDPS_WindSpeed_IsbL-0100_RLatLon0.09_PT013H.grib2 2026-04-23 14:44 486K
20260423T12Z_MSC_RDPS_WindSpeed_IsbL-0150_RLatLon0.09_PT013H.grib2 2026-04-23 14:44 386K
20260423T12Z_MSC_RDPS_WindSpeed_IsbL-0175_RLatLon0.09_PT013H.grib2 2026-04-23 14:44 418K
20260423T12Z_MSC_RDPS_WindSpeed_IsbL-0200_RLatLon0.09_PT013H.grib2 2026-04-23 14:44 458K
20260423T12Z_MSC_RDPS_WindSpeed_IsbL-0225_RLatLon0.09_PT013H.grib2 2026-04-23 14:44 463K
20260423T12Z_MSC_RDPS_WindSpeed_IsbL-0250_RLatLon0.09_PT013H.grib2 2026-04-23 14:44 464K
20260423T12Z_MSC_RDPS_WindSpeed_IsbL-0275_RLatLon0.09_PT013H.grib2 2026-04-23 14:44 479K
20260423T12Z_MSC_RDPS_WindSpeed_IsbL-0300_RLatLon0.09_PT013H.grib2 2026-04-23 14:44 473K
20260423T12Z_MSC_RDPS_WindSpeed_IsbL-0350_RLatLon0.09_PT013H.grib2 2026-04-23 14:44 481K
20260423T12Z_MSC_RDPS_WindSpeed_IsbL-0400_RLatLon0.09_PT013H.grib2 2026-04-23 14:44 483K
20260423T12Z_MSC_RDPS_WindSpeed_IsbL-0450_RLatLon0.09_PT013H.grib2 2026-04-23 14:44 468K
20260423T12Z_MSC_RDPS_WindSpeed_IsbL-0500_RLatLon0.09_PT013H.grib2 2026-04-23 14:44 472K
20260423T12Z_MSC_RDPS_WindSpeed_IsbL-0550_RLatLon0.09_PT013H.grib2 2026-04-23 14:44 593K
20260423T12Z_MSC_RDPS_WindSpeed_IsbL-0600_RLatLon0.09_PT013H.grib2 2026-04-23 14:44 604K
20260423T12Z_MSC_RDPS_WindSpeed_IsbL-0650_RLatLon0.09_PT013H.grib2 2026-04-23 14:44 621K
20260423T12Z_MSC_RDPS_WindSpeed_IsbL-0700_RLatLon0.09_PT013H.grib2 2026-04-23 14:44 685K
20260423T12Z_MSC_RDPS_WindSpeed_IsbL-0750_RLatLon0.09_PT013H.grib2 2026-04-23 14:44 713K
20260423T12Z_MSC_RDPS_WindSpeed_IsbL-0800_RLatLon0.09_PT013H.grib2 2026-04-23 14:44 764K
20260423T12Z_MSC_RDPS_WindSpeed_IsbL-0850_RLatLon0.09_PT013H.grib2 2026-04-23 14:44 814K
20260423T12Z_MSC_RDPS_WindSpeed_IsbL-0875_RLatLon0.09_PT013H.grib2 2026-04-23 14:44 830K
20260423T12Z_MSC_RDPS_WindSpeed_IsbL-0900_RLatLon0.09_PT013H.grib2 2026-04-23 14:44 846K
20260423T12Z_MSC_RDPS_WindSpeed_IsbL-0925_RLatLon0.09_PT013H.grib2 2026-04-23 14:44 858K
20260423T12Z_MSC_RDPS_WindSpeed_IsbL-0950_RLatLon0.09_PT013H.grib2 2026-04-23 14:44 858K
20260423T12Z_MSC_RDPS_WindSpeed_IsbL-0970_RLatLon0.09_PT013H.grib2 2026-04-23 14:44 857K
20260423T12Z_MSC_RDPS_WindSpeed_IsbL-0985_RLatLon0.09_PT013H.grib2 2026-04-23 14:44 854K
20260423T12Z_MSC_RDPS_WindSpeed_IsbL-1000_RLatLon0.09_PT013H.grib2 2026-04-23 14:44 849K
20260423T12Z_MSC_RDPS_WindSpeed_IsbL-1015_RLatLon0.09_PT013H.grib2 2026-04-23 14:44 839K
20260423T12Z_MSC_RDPS_WindU_AGL-10m_RLatLon0.09_PT013H.grib2 2026-04-23 14:44 431K
20260423T12Z_MSC_RDPS_WindU_AGL-120m_RLatLon0.09_PT013H.grib2 2026-04-23 14:44 416K
20260423T12Z_MSC_RDPS_WindU_AGL-40m_RLatLon0.09_PT013H.grib2 2026-04-23 14:44 536K
20260423T12Z_MSC_RDPS_WindU_AGL-80m_RLatLon0.09_PT013H.grib2 2026-04-23 14:44 534K
20260423T12Z_MSC_RDPS_WindU_IsbL-0001_RLatLon0.09_PT013H.grib2 2026-04-23 14:44 238K
20260423T12Z_MSC_RDPS_WindU_IsbL-0005_RLatLon0.09_PT013H.grib2 2026-04-23 14:44 284K
20260423T12Z_MSC_RDPS_WindU_IsbL-0010_RLatLon0.09_PT013H.grib2 2026-04-23 14:44 297K
20260423T12Z_MSC_RDPS_WindU_IsbL-0020_RLatLon0.09_PT013H.grib2 2026-04-23 14:44 316K
20260423T12Z_MSC_RDPS_WindU_IsbL-0030_RLatLon0.09_PT013H.grib2 2026-04-23 14:44 355K
20260423T12Z_MSC_RDPS_WindU_IsbL-0050_RLatLon0.09_PT013H.grib2 2026-04-23 14:44 351K
20260423T12Z_MSC_RDPS_WindU_IsbL-0100_RLatLon0.09_PT013H.grib2 2026-04-23 14:44 437K
20260423T12Z_MSC_RDPS_WindU_IsbL-0150_RLatLon0.09_PT013H.grib2 2026-04-23 14:44 402K
20260423T12Z_MSC_RDPS_WindU_IsbL-0175_RLatLon0.09_PT013H.grib2 2026-04-23 14:44 432K
20260423T12Z_MSC_RDPS_WindU_IsbL-0200_RLatLon0.09_PT013H.grib2 2026-04-23 14:44 451K
20260423T12Z_MSC_RDPS_WindU_IsbL-0225_RLatLon0.09_PT013H.grib2 2026-04-23 14:44 454K
20260423T12Z_MSC_RDPS_WindU_IsbL-0250_RLatLon0.09_PT013H.grib2 2026-04-23 14:44 452K
20260423T12Z_MSC_RDPS_WindU_IsbL-0275_RLatLon0.09_PT013H.grib2 2026-04-23 14:44 364K
20260423T12Z_MSC_RDPS_WindU_IsbL-0300_RLatLon0.09_PT013H.grib2 2026-04-23 14:44 358K
20260423T12Z_MSC_RDPS_WindU_IsbL-0350_RLatLon0.09_PT013H.grib2 2026-04-23 14:44 364K
20260423T12Z_MSC_RDPS_WindU_IsbL-0400_RLatLon0.09_PT013H.grib2 2026-04-23 14:44 366K
20260423T12Z_MSC_RDPS_WindU_IsbL-0450_RLatLon0.09_PT013H.grib2 2026-04-23 14:44 471K
20260423T12Z_MSC_RDPS_WindU_IsbL-0500_RLatLon0.09_PT013H.grib2 2026-04-23 14:44 475K
20260423T12Z_MSC_RDPS_WindU_IsbL-0550_RLatLon0.09_PT013H.grib2 2026-04-23 14:44 480K
20260423T12Z_MSC_RDPS_WindU_IsbL-0600_RLatLon0.09_PT013H.grib2 2026-04-23 14:44 489K
20260423T12Z_MSC_RDPS_WindU_IsbL-0650_RLatLon0.09_PT013H.grib2 2026-04-23 14:44 489K
20260423T12Z_MSC_RDPS_WindU_IsbL-0700_RLatLon0.09_PT013H.grib2 2026-04-23 14:44 507K
20260423T12Z_MSC_RDPS_WindU_IsbL-0750_RLatLon0.09_PT013H.grib2 2026-04-23 14:44 533K
20260423T12Z_MSC_RDPS_WindU_IsbL-0800_RLatLon0.09_PT013H.grib2 2026-04-23 14:44 579K
20260423T12Z_MSC_RDPS_WindU_IsbL-0850_RLatLon0.09_PT013H.grib2 2026-04-23 14:44 621K
20260423T12Z_MSC_RDPS_WindU_IsbL-0875_RLatLon0.09_PT013H.grib2 2026-04-23 14:44 635K
20260423T12Z_MSC_RDPS_WindU_IsbL-0900_RLatLon0.09_PT013H.grib2 2026-04-23 14:44 647K
20260423T12Z_MSC_RDPS_WindU_IsbL-0925_RLatLon0.09_PT013H.grib2 2026-04-23 14:44 656K
20260423T12Z_MSC_RDPS_WindU_IsbL-0950_RLatLon0.09_PT013H.grib2 2026-04-23 14:44 651K
20260423T12Z_MSC_RDPS_WindU_IsbL-0970_RLatLon0.09_PT013H.grib2 2026-04-23 14:44 653K
20260423T12Z_MSC_RDPS_WindU_IsbL-0985_RLatLon0.09_PT013H.grib2 2026-04-23 14:44 790K
20260423T12Z_MSC_RDPS_WindU_IsbL-1000_RLatLon0.09_PT013H.grib2 2026-04-23 14:44 784K
20260423T12Z_MSC_RDPS_WindU_IsbL-1015_RLatLon0.09_PT013H.grib2 2026-04-23 14:44 777K
20260423T12Z_MSC_RDPS_WindV_AGL-10m_RLatLon0.09_PT013H.grib2 2026-04-23 14:44 430K
20260423T12Z_MSC_RDPS_WindV_AGL-120m_RLatLon0.09_PT013H.grib2 2026-04-23 14:44 413K
20260423T12Z_MSC_RDPS_WindV_AGL-40m_RLatLon0.09_PT013H.grib2 2026-04-23 14:44 417K
20260423T12Z_MSC_RDPS_WindV_AGL-80m_RLatLon0.09_PT013H.grib2 2026-04-23 14:44 415K
20260423T12Z_MSC_RDPS_WindV_IsbL-0001_RLatLon0.09_PT013H.grib2 2026-04-23 14:44 287K
20260423T12Z_MSC_RDPS_WindV_IsbL-0005_RLatLon0.09_PT013H.grib2 2026-04-23 14:44 327K
20260423T12Z_MSC_RDPS_WindV_IsbL-0010_RLatLon0.09_PT013H.grib2 2026-04-23 14:44 339K
20260423T12Z_MSC_RDPS_WindV_IsbL-0020_RLatLon0.09_PT013H.grib2 2026-04-23 14:44 318K
20260423T12Z_MSC_RDPS_WindV_IsbL-0030_RLatLon0.09_PT013H.grib2 2026-04-23 14:44 356K
20260423T12Z_MSC_RDPS_WindV_IsbL-0050_RLatLon0.09_PT013H.grib2 2026-04-23 14:44 353K
20260423T12Z_MSC_RDPS_WindV_IsbL-0100_RLatLon0.09_PT013H.grib2 2026-04-23 14:44 338K
20260423T12Z_MSC_RDPS_WindV_IsbL-0150_RLatLon0.09_PT013H.grib2 2026-04-23 14:44 400K
20260423T12Z_MSC_RDPS_WindV_IsbL-0175_RLatLon0.09_PT013H.grib2 2026-04-23 14:44 334K
20260423T12Z_MSC_RDPS_WindV_IsbL-0200_RLatLon0.09_PT013H.grib2 2026-04-23 14:44 349K
20260423T12Z_MSC_RDPS_WindV_IsbL-0225_RLatLon0.09_PT013H.grib2 2026-04-23 14:44 351K
20260423T12Z_MSC_RDPS_WindV_IsbL-0250_RLatLon0.09_PT013H.grib2 2026-04-23 14:44 375K
20260423T12Z_MSC_RDPS_WindV_IsbL-0275_RLatLon0.09_PT013H.grib2 2026-04-23 14:44 385K
20260423T12Z_MSC_RDPS_WindV_IsbL-0300_RLatLon0.09_PT013H.grib2 2026-04-23 14:44 379K
20260423T12Z_MSC_RDPS_WindV_IsbL-0350_RLatLon0.09_PT013H.grib2 2026-04-23 14:44 362K
20260423T12Z_MSC_RDPS_WindV_IsbL-0400_RLatLon0.09_PT013H.grib2 2026-04-23 14:44 364K
20260423T12Z_MSC_RDPS_WindV_IsbL-0450_RLatLon0.09_PT013H.grib2 2026-04-23 14:44 468K
20260423T12Z_MSC_RDPS_WindV_IsbL-0500_RLatLon0.09_PT013H.grib2 2026-04-23 14:44 472K
20260423T12Z_MSC_RDPS_WindV_IsbL-0550_RLatLon0.09_PT013H.grib2 2026-04-23 14:44 475K
20260423T12Z_MSC_RDPS_WindV_IsbL-0600_RLatLon0.09_PT013H.grib2 2026-04-23 14:44 485K
20260423T12Z_MSC_RDPS_WindV_IsbL-0650_RLatLon0.09_PT013H.grib2 2026-04-23 14:44 500K
20260423T12Z_MSC_RDPS_WindV_IsbL-0700_RLatLon0.09_PT013H.grib2 2026-04-23 14:44 518K
20260423T12Z_MSC_RDPS_WindV_IsbL-0750_RLatLon0.09_PT013H.grib2 2026-04-23 14:44 542K
20260423T12Z_MSC_RDPS_WindV_IsbL-0800_RLatLon0.09_PT013H.grib2 2026-04-23 14:44 572K
20260423T12Z_MSC_RDPS_WindV_IsbL-0850_RLatLon0.09_PT013H.grib2 2026-04-23 14:44 616K
20260423T12Z_MSC_RDPS_WindV_IsbL-0875_RLatLon0.09_PT013H.grib2 2026-04-23 14:44 630K
20260423T12Z_MSC_RDPS_WindV_IsbL-0900_RLatLon0.09_PT013H.grib2 2026-04-23 14:44 643K
20260423T12Z_MSC_RDPS_WindV_IsbL-0925_RLatLon0.09_PT013H.grib2 2026-04-23 14:44 653K
20260423T12Z_MSC_RDPS_WindV_IsbL-0950_RLatLon0.09_PT013H.grib2 2026-04-23 14:44 649K
20260423T12Z_MSC_RDPS_WindV_IsbL-0970_RLatLon0.09_PT013H.grib2 2026-04-23 14:44 648K
20260423T12Z_MSC_RDPS_WindV_IsbL-0985_RLatLon0.09_PT013H.grib2 2026-04-23 14:44 647K
20260423T12Z_MSC_RDPS_WindV_IsbL-1000_RLatLon0.09_PT013H.grib2 2026-04-23 14:44 780K
20260423T12Z_MSC_RDPS_WindV_IsbL-1015_RLatLon0.09_PT013H.grib2 2026-04-23 14:44 774K